Location: Nairn
(57.5833°N, 3.8667°W)
Time: 04:59:13
(UTC+00:00)

A-11 Canister half - Visible Passes

Search period start: 06 October 2022 00:00
Search period end: 16 October 2022 00:00
Orbit: 1516 x 1684 km, 47.2° (Epoch: 05 October)

Date Brightness Start Highest point End Pass type
(mag) Time Alt. Az. Time Alt. Az. Time Alt. Az.
06 Oct 10.4 18:12:26 10° SSE 18:16:34 13° SE 18:20:40 10° ESE visible
06 Oct 9.6 20:10:52 10° SSW 20:19:03 32° SSE 20:20:13 31° SE visible
06 Oct 9.9 22:13:30 10° WSW 22:18:25 31° SW 22:18:25 31° SW visible
07 Oct 9.6 19:48:06 10° SSW 19:56:13 31° SSE 19:58:39 28° SE visible
07 Oct 9.6 21:50:36 10° WSW 21:56:51 37° SSW 21:56:51 37° SSW visible
07 Oct 10.8 23:54:30 10° W 23:55:04 12° W 23:55:04 12° W visible
08 Oct 9.8 19:25:20 10° SSW 19:33:23 30° SSE 19:37:02 24° ESE visible
08 Oct 9.4 21:27:44 10° WSW 21:35:13 42° SSW 21:35:13 42° SSW visible
08 Oct 10.6 23:31:35 10° W 23:33:25 17° WSW 23:33:25 17° WSW visible
09 Oct 9.8 19:02:36 10° SSW 19:10:33 29° SSE 19:15:21 19° ESE visible
09 Oct 9.3 21:04:52 10° WSW 21:13:32 44° S 21:13:32 44° S visible
09 Oct 10.4 23:08:40 10° W 23:11:44 22° WSW 23:11:44 22° WSW visible
10 Oct 9.9 18:39:51 10° SSW 18:47:43 28° SSE 18:53:37 15° E visible
10 Oct 9.3 20:41:59 10° WSW 20:50:58 44° S 20:51:48 43° SSE visible
10 Oct 10.1 22:45:45 10° W 22:49:59 27° WSW 22:49:59 27° WSW visible
11 Oct 10.0 18:17:09 10° SSW 18:24:54 27° SE 18:31:51 12° E visible
11 Oct 9.3 20:19:07 10° SW 20:28:06 43° SSE 20:30:02 39° SE visible
11 Oct 9.9 22:22:50 10° W 22:28:13 32° SW 22:28:13 32° SW visible
12 Oct 10.1 17:54:25 10° SSW 18:02:04 26° SE 18:09:31 10° E visible
12 Oct 9.4 19:56:15 10° SW 20:05:14 43° SSE 20:08:14 34° SE visible
12 Oct 9.7 21:59:55 10° WSW 22:06:25 37° SW 22:06:25 37° SW visible
13 Oct 11.0 00:04:28 10° W 00:04:36 10° W 00:04:36 10° W visible
13 Oct 9.5 19:33:23 10° SW 19:42:23 42° SSE 19:46:25 29° ESE visible
13 Oct 9.5 21:37:00 10° WSW 21:44:36 42° SSW 21:44:36 42° SSW visible
13 Oct 10.8 23:41:30 10° W 23:42:47 14° W 23:42:47 14° W visible
14 Oct 9.5 19:10:32 10° SW 19:19:31 42° SSE 19:24:36 24° ESE visible
14 Oct 9.4 21:14:06 10° WSW 21:22:47 44° SSW 21:22:47 44° SSW visible
14 Oct 10.6 23:18:32 10° W 23:20:57 18° WSW 23:20:57 18° WSW visible
15 Oct 9.6 18:47:41 10° SW 18:56:39 41° SSE 19:02:45 20° ESE visible
15 Oct 9.3 20:51:11 10° WSW 21:00:14 45° S 21:00:56 44° S visible
15 Oct 10.4 22:55:35 10° W 22:59:07 21° WSW 22:59:07 21° WSW visible
